Погода в Днепропетровске

Погода в Днепропетровске : погода сейчас, прогноз погоды и архив. Всё, что Вы хотите узнать о погоде в Днепропетровске!

Хотите узнать прогноз погоды в Днепропетровске? Тогда Вам сюда: Погода в Днепропетровске

Поиск расширенной информации на нашем сайте:

Другие новости

Новости СМИ2

Главная страница сайта

Новости сайта

03.07.2017

Напоминаем, что на нашем специализированном сайте Метеоцентр.Азия вы можете получить высокодетализированные автоматические прогнозы погоды по пунктам России, СНГ и мира в авиационном формате (включающие направление и скорость ветра, видимость, явления погоды, количество и форму облачности, нижнюю и верхнюю границу облачности).

Рекомендуем: Подольск и ремонт ноутбуков Щербинка. Ремонт ноутбуков в Подольске лучшие цены в Москве.

Погода в Днепропетровске - сегодня

Время (UTC), дата Ветер
(°,м/с) 
Видим.   Явления Облачность Т
(°С)
Тd
(°С)
f(%) Тe
(°С)
Pmin
(гПа)
dP
(гПа)
Po
(мм)
O2
(г/м3)
Тmin Tmax R s Состояние
почвы
18 17.02.18 тихо ()   0900 м  туман{снег}  ?/?  
-0.6 -0.6 100 -1  1022.3  0.2  753  304         
21 17.02.18 тихо ()   0800 м  туман{снег}  ?/?  
-0.8 -0.8 100 -1  1021.9  -0.4  753  304           
00 18.02.18 340 (С) 4400 м  дымка{снег, туман}  10/10 420 м 
[St]
-0.5 -1.1 96 -2  1021.9  753  304           
03 18.02.18 300 (СЗ) 3200 м  дымка  10/10 480 м 
[St]
-2.1 -3 94 -4  1021.9  -0.1  753  306           
06 18.02.18 350 (С) 2500 м  дымка  10/10 100 м 
[St]
-2.2 -3.1 94 -2  1022.5  0.6  753  306  -3.3    0.1     
09 18.02.18 170 (Ю) 5000 м  дымка  9/5 450 м средняя 
[St|Ac und]
+1.8 -1.6 78 +3  1022.3  753  302           
12 18.02.18 тихо ()   10 км    8/8 840 м 
[Sc]
+2.1 -4 64 +2  1021.6  -0.6  753  301           
15 18.02.18 тихо ()   10 км    10/10 1000 м 
[Sc]
+1.1 -3.4 72 +1  1021.9  0.2  753  302           
18 18.02.18 040 (СВ) 8000 м  дымка  10/6 870 м средняя 
[Sc|Ac und]
-0.6 -2.7 86 1022.4  0.4  753  304    +3.1       
21 18.02.18 тихо ()   8000 м  дымка  10/0 средняя 
[Ac und]
-0.8 -3 85 -1  1022  -0.4  753  305           
00 19.02.18 тихо ()   7000 м  дымка  9/0 средняя 
[Ac As]
-1.6 -3.3 88 -2  1021.7  -0.4  752  305           
03 19.02.18 тихо ()   3300 м  дымка  8/0 средняя 
[Ac trans]
-1.9 -3.1 91 -2  1021.2  -0.5  752  305           
06 19.02.18 тихо ()   0900 м  туман  4/0 средняя 
[Ac trans]
-2.1 -2.1 100 -2  1021.9  0.7  753  306  -2.9      <0.5  мокрый или
старый снег
50-90% 
09 19.02.18 320 (СЗ) 8000 м  дымка{туман}  8/8 500 м 
[Sc]
+1.4 -1.5 81 1022.2  0.5  753  302           
12 19.02.18 340 (С) 10 км  {туман}  10/10 540 м 
[Sc]
+0.2 -2.8 80 -3  1022.6  0.3  753  304           
15 19.02.18 320 (СЗ) 10 км    9/9 750 м 
[Sc]
-1.1 -4.4 78 -4  1023.4  0.7  754  305        597  мокрый или
старый снег
50-90% 
18 19.02.18 320 (СЗ) 10 км    9/9 930 м 
[Sc]
-1.5 -5.2 76 -3  1024.1  0.7  754  306           
21 19.02.18 330 (СЗ) 10 км    9/9 600 м 
[Sc]
-2 -5.9 75 -5  1024.1  -0.1  754  307           
00 20.02.18 330 (СЗ) 10 км    4/0 средняя 
[Ac trans]
-3.9 -8.4 71 -6  1024.6  0.4  754  309           
03 20.02.18 160 (Ю) 0100 м  туман  ?/?  
+0.7 +0.7 100 -2  1013.5  -1.2  746  300        <0.5  мокрый или
старый снег
50-90% 
06 20.02.18 150 (ЮВ) 8000 м  дымка  10/10 200 м 
[St]
+1.7 +0.6 92 1015.1  -0.2  748  299  -3.5      11  равномерный
мокрый или
старый снег
100% 
09 20.02.18 290 (З) 10 км    8/5 1000 м средняя 
[Sc|Ac und]
-0.3 -4.7 72 -2  1024.6  -0.1  755  305        <0.5  мокрый или
старый снег
50-90% 
12 20.02.18 290 (З) 10 км    9/9 1020 м 
[Sc]
+0.3 -4.8 69 1024.3  -0.2  754  304           
15 20.02.18 310 (СЗ) 10 км    3/3 1500 м 
[Sc]
-0.7 -6.5 65 -3  1023.7  -0.7  754  305           
18 20.02.18 360 (С) 10 км    8/8 630 м 
[Sc]
-2.8 -6.2 77 -6  1024.5  0.7  754  308    +0.8       
Время (UTC), дата Ветер
(°,м/с) 
Видим.   Явления Облачность Т
(°С)
Тd
(°С)
f(%) Тe
(°С)
Pmin
(гПа)
dP
(гПа)
Po
(мм)
O2
(г/м3)
Тmin Tmax R s Состояние
почвы

Для получения пояснительной информации подведите курсор к названию столбца.

ПОГОДА в Днепропетровске - архив

Всё, что Вы хотите узнать о погоде в Днепропетровске - удобно и подробно!

Выберите нужную дату (начиная с 1 января 2015* года) и нажмите кнопку "Найти".
Будут отображены архивные сводки погоды по пункту Днепропетровск, начиная с указанной даты.


Отображать данные в формате CSV (для использования в таблицах Excel)


Внимание! Наш архив погоды предназначен исключительно для личного некоммерческого использования в познавательных целях. Если Вам необходимы официальные справки о состоянии погоды (для производственных, юридических, коммерческих и т.п. целей), обращайтесь в органы Росгидромета.

*Примечание: данная дата относится к архиву по метеостанциям СССР (Россия, СНГ, Балтия).
Архив по метеостанциям Зарубежной Европы и Азии (кроме Китая) хранится 10 дней, по другим регионам земного шара (Китай, Африка, Америка, Австралия, Океания) - 1 день.

Днепропетровск - район местоположения метеостанции


Название, широта, долгота, высота метеостанции:
Днепропетровск (Кайдаки) 48.6°ш. 35°д. 143 м над ур. моря [Украина]

Дополнительная информация

В oтличие oт бoльшинства пoгoдных сайтoв мы публикуем пoдрoбную метеoинфoрмацию в детальнoм прoфессиoнальнoм фoрмате.

Характеристики температуры и влажнoсти вoздуха измеряются на высoте 2 м в тени вдали oт зданий и деревьев.
Скoрoсть ветра измеряется на высoте 10 м (на урoвне рoста челoвека скoрoсть ветра ниже в 1.5-2 раза). Если метеoстанция нахoдится в гoрoде или в лесу, тo скoрoсть ветра занижена на 2-4 м/с пo сравнению с oткрытым местoм. Скoрoсть ветра над акватoриями крупных рек и oзёр, а также на вершинах хoлмoв на 2-5 м/с выше, чем в oбычных услoвиях.
Атмoсфернoе давление в разных тoчках местнoсти мoжет значительнo oтличаться oт давления на метеoстанции, в зависимoсти oт услoвий рельефа (при пoдъёме на 10 м давление пoнижается примернo на 1 мм рт.ст.).